Precipitable_Water
0.51 0.51 0.52 0.52 0.51 0.52 0.52 0.51 0.51 0.51 0.51 0.50 0.49 0.49 0.50 0.49 0.47 0.48 0.47 0.46 0.46 0.45 0.45 0.44 0.44 0.43 0.42 0.42 0.41 0.41 0.41 0.32 0.28 0.28 0.26 0.32 0.42 0.46 0.38 0.40 0.37 0.38 0.39 0.35 0.32 0.28 0.25 0.27 0.27 0.31 0.28 0.26 0.28 0.25 0.35 0.31 0.31 0.27 0.18 0.16 0.14 0.16 0.16 0.23 0.22 0.24 0.26 0.24 0.26 0.27 0.26 0.24 0.21 0.24 0.26 0.29 0.26 0.25 0.23 0.21 0.22 0.25 0.25 0.26 0.27 0.30 0.35 0.42
0.54 0.53 0.53 0.52 0.52 0.51 0.51 0.51 0.51 0.51 0.50 0.50 0.50 0.49 0.49 0.48 0.48 0.47 0.46 0.45 0.44 0.44 0.44 0.44 0.42 0.42 0.43 0.42 0.41 0.42 0.39 0.32 0.26 0.27 0.30 0.46 0.49 0.45 0.40 0.37 0.37 0.36 0.37 0.31 0.27 0.26 0.24 0.25 0.27 0.29 0.26 0.22 0.36 0.26 0.36 0.29 0.34 0.22 0.20 0.19 0.14 0.18 0.18 0.24 0.26 0.25 0.23 0.24 0.26 0.27 0.27 0.25 0.23 0.25 0.27 0.24 0.22 0.23 0.23 0.21 0.21 0.21 0.22 0.24 0.26 0.30 0.32 0.36
0.55 0.54 0.54 0.53 0.52 0.51 0.51 0.51 0.51 0.51 0.51 0.51 0.50 0.51 0.50 0.49 0.49 0.48 0.47 0.47 0.46 0.45 0.45 0.44 0.43 0.43 0.42 0.43 0.43 0.43 0.39 0.30 0.29 0.28 0.33 0.51 0.48 0.42 0.39 0.38 0.38 0.38 0.33 0.30 0.31 0.29 0.26 0.26 0.28 0.28 0.27 0.22 0.29 0.25 0.32 0.29 0.31 0.29 0.22 0.17 0.18 0.22 0.23 0.23 0.25 0.24 0.26 0.27 0.27 0.27 0.28 0.28 0.28 0.28 0.30 0.24 0.24 0.25 0.23 0.22 0.22 0.21 0.20 0.22 0.23 0.26 0.30 0.34
0.57 0.55 0.54 0.54 0.53 0.51 0.51 0.52 0.53 0.52 0.52 0.52 0.51 0.51 0.51 0.50 0.50 0.50 0.49 0.49 0.48 0.48 0.46 0.45 0.45 0.44 0.44 0.43 0.44 0.44 0.39 0.28 0.23 0.28 0.40 0.47 0.42 0.43 0.40 0.39 0.40 0.39 0.37 0.36 0.36 0.31 0.32 0.31 0.29 0.28 0.25 0.22 0.24 0.31 0.26 0.31 0.25 0.31 0.25 0.20 0.21 0.25 0.24 0.25 0.26 0.25 0.26 0.29 0.29 0.29 0.30 0.28 0.30 0.31 0.28 0.26 0.25 0.25 0.25 0.27 0.25 0.23 0.23 0.23 0.25 0.26 0.28 0.31
0.58 0.56 0.55 0.53 0.53 0.53 0.53 0.54 0.54 0.54 0.53 0.53 0.53 0.53 0.52 0.53 0.52 0.51 0.51 0.51 0.51 0.50 0.49 0.48 0.47 0.46 0.45 0.45 0.43 0.46 0.32 0.18 0.24 0.33 0.43 0.42 0.43 0.43 0.43 0.43 0.42 0.40 0.39 0.38 0.35 0.32 0.31 0.28 0.27 0.26 0.24 0.20 0.23 0.26 0.27 0.32 0.33 0.32 0.27 0.29 0.29 0.30 0.27 0.30 0.31 0.30 0.31 0.33 0.32 0.31 0.28 0.28 0.33 0.32 0.30 0.29 0.26 0.24 0.26 0.27 0.28 0.28 0.27 0.27 0.27 0.27 0.28 0.28
0.57 0.56 0.55 0.54 0.53 0.55 0.56 0.55 0.56 0.56 0.55 0.56 0.56 0.56 0.56 0.56 0.56 0.55 0.55 0.55 0.54 0.54 0.53 0.53 0.52 0.49 0.49 0.47 0.45 0.42 0.29 0.12 0.30 0.35 0.46 0.45 0.44 0.47 0.45 0.45 0.44 0.41 0.38 0.34 0.31 0.31 0.29 0.27 0.27 0.23 0.24 0.24 0.24 0.22 0.26 0.31 0.36 0.26 0.31 0.32 0.34 0.34 0.31 0.34 0.33 0.33 0.33 0.31 0.30 0.29 0.31 0.33 0.31 0.30 0.32 0.31 0.29 0.29 0.32 0.32 0.32 0.30 0.29 0.29 0.30 0.30 0.28 0.27
0.58 0.56 0.55 0.55 0.56 0.57 0.57 0.57 0.57 0.57 0.58 0.58 0.58 0.59 0.59 0.60 0.60 0.60 0.60 0.59 0.59 0.59 0.58 0.57 0.56 0.55 0.53 0.51 0.56 0.40 0.27 0.25 0.35 0.53 0.52 0.53 0.51 0.49 0.48 0.47 0.45 0.40 0.39 0.33 0.32 0.30 0.31 0.30 0.30 0.28 0.28 0.28 0.30 0.30 0.31 0.32 0.35 0.32 0.28 0.34 0.34 0.37 0.34 0.36 0.35 0.36 0.36 0.35 0.33 0.35 0.36 0.31 0.31 0.27 0.33 0.31 0.34 0.35 0.36 0.36 0.36 0.36 0.35 0.33 0.30 0.30 0.29 0.30
0.58 0.58 0.57 0.57 0.58 0.59 0.59 0.60 0.60 0.61 0.62 0.63 0.63 0.64 0.65 0.65 0.65 0.65 0.65 0.65 0.64 0.64 0.64 0.62 0.60 0.59 0.59 0.51 0.40 0.32 0.32 0.30 0.45 0.62 0.63 0.59 0.55 0.54 0.50 0.47 0.43 0.42 0.38 0.35 0.35 0.33 0.36 0.33 0.31 0.34 0.32 0.30 0.32 0.31 0.33 0.32 0.33 0.30 0.30 0.34 0.36 0.37 0.37 0.38 0.38 0.37 0.36 0.36 0.36 0.35 0.32 0.31 0.32 0.31 0.34 0.34 0.37 0.38 0.38 0.38 0.38 0.37 0.37 0.37 0.36 0.35 0.35 0.35
0.62 0.62 0.60 0.62 0.63 0.63 0.64 0.65 0.66 0.67 0.67 0.68 0.69 0.69 0.70 0.71 0.70 0.70 0.70 0.70 0.69 0.68 0.69 0.69 0.67 0.65 0.68 0.57 0.43 0.33 0.32 0.51 0.68 0.70 0.67 0.60 0.56 0.55 0.51 0.42 0.49 0.43 0.41 0.41 0.42 0.41 0.39 0.37 0.37 0.38 0.32 0.33 0.37 0.33 0.35 0.32 0.29 0.34 0.33 0.35 0.35 0.35 0.36 0.37 0.37 0.36 0.35 0.35 0.35 0.33 0.32 0.33 0.35 0.38 0.34 0.37 0.38 0.39 0.39 0.37 0.36 0.35 0.35 0.35 0.35 0.36 0.35 0.35
0.68 0.67 0.65 0.67 0.69 0.70 0.70 0.71 0.72 0.73 0.73 0.74 0.74 0.74 0.74 0.74 0.75 0.75 0.75 0.76 0.75 0.76 0.75 0.76 0.75 0.73 0.63 0.54 0.50 0.34 0.58 0.72 0.78 0.77 0.74 0.67 0.60 0.57 0.54 0.54 0.52 0.48 0.43 0.43 0.45 0.44 0.41 0.41 0.40 0.45 0.43 0.39 0.39 0.35 0.37 0.34 0.31 0.37 0.35 0.35 0.35 0.35 0.36 0.36 0.34 0.35 0.37 0.36 0.37 0.33 0.32 0.33 0.37 0.35 0.30 0.37 0.39 0.39 0.37 0.36 0.35 0.33 0.32 0.33 0.34 0.34 0.34 0.34
0.71 0.72 0.72 0.74 0.75 0.75 0.76 0.75 0.75 0.76 0.77 0.77 0.78 0.78 0.78 0.79 0.79 0.79 0.78 0.78 0.77 0.77 0.76 0.74 0.76 0.69 0.55 0.54 0.42 0.36 0.71 0.72 0.77 0.81 0.81 0.69 0.60 0.53 0.54 0.59 0.59 0.52 0.49 0.49 0.47 0.51 0.51 0.48 0.49 0.48 0.43 0.37 0.38 0.36 0.36 0.35 0.38 0.36 0.36 0.36 0.35 0.36 0.36 0.35 0.36 0.36 0.37 0.35 0.37 0.35 0.33 0.34 0.35 0.35 0.33 0.36 0.38 0.38 0.35 0.34 0.34 0.33 0.33 0.34 0.34 0.34 0.35 0.35
0.77 0.77 0.77 0.79 0.79 0.78 0.78 0.78 0.78 0.80 0.82 0.83 0.84 0.84 0.85 0.85 0.84 0.83 0.82 0.80 0.79 0.78 0.78 0.76 0.73 0.69 0.61 0.50 0.43 0.44 0.68 0.72 0.78 0.78 0.76 0.72 0.62 0.63 0.66 0.69 0.65 0.59 0.56 0.50 0.53 0.56 0.57 0.54 0.52 0.46 0.36 0.44 0.34 0.38 0.36 0.41 0.39 0.37 0.37 0.31 0.33 0.35 0.33 0.37 0.36 0.38 0.37 0.35 0.37 0.36 0.32 0.31 0.33 0.32 0.37 0.38 0.38 0.36 0.34 0.33 0.33 0.33 0.34 0.35 0.36 0.36 0.37 0.39
0.83 0.83 0.83 0.84 0.83 0.83 0.83 0.84 0.86 0.88 0.89 0.91 0.91 0.90 0.90 0.90 0.88 0.86 0.84 0.82 0.83 0.82 0.81 0.80 0.75 0.70 0.55 0.41 0.47 0.62 0.70 0.76 0.77 0.74 0.72 0.74 0.70 0.72 0.72 0.71 0.68 0.66 0.63 0.58 0.56 0.59 0.60 0.58 0.54 0.45 0.48 0.44 0.40 0.34 0.40 0.42 0.39 0.38 0.36 0.33 0.32 0.32 0.32 0.38 0.39 0.39 0.36 0.36 0.39 0.37 0.25 0.29 0.33 0.36 0.38 0.38 0.36 0.35 0.34 0.34 0.35 0.35 0.36 0.38 0.38 0.38 0.40 0.42
0.87 0.88 0.88 0.88 0.88 0.89 0.89 0.90 0.92 0.94 0.95 0.95 0.95 0.94 0.93 0.91 0.89 0.87 0.85 0.83 0.84 0.82 0.83 0.80 0.78 0.68 0.54 0.44 0.57 0.66 0.73 0.76 0.76 0.71 0.69 0.73 0.66 0.65 0.68 0.69 0.68 0.66 0.67 0.62 0.62 0.63 0.60 0.62 0.57 0.52 0.53 0.44 0.39 0.49 0.41 0.39 0.39 0.33 0.35 0.35 0.31 0.30 0.30 0.38 0.38 0.39 0.35 0.38 0.38 0.37 0.27 0.29 0.33 0.36 0.38 0.37 0.36 0.35 0.34 0.35 0.36 0.38 0.39 0.40 0.39 0.39 0.40 0.43
0.91 0.91 0.91 0.92 0.92 0.93 0.93 0.95 0.97 0.97 0.98 0.98 0.97 0.96 0.95 0.91 0.89 0.88 0.89 0.85 0.87 0.84 0.82 0.82 0.78 0.61 0.47 0.47 0.66 0.72 0.76 0.76 0.66 0.67 0.72 0.66 0.62 0.58 0.60 0.65 0.64 0.64 0.65 0.64 0.62 0.63 0.62 0.60 0.55 0.47 0.42 0.47 0.46 0.40 0.36 0.36 0.36 0.37 0.31 0.28 0.32 0.30 0.31 0.36 0.40 0.39 0.34 0.36 0.38 0.36 0.27 0.29 0.33 0.35 0.37 0.37 0.37 0.36 0.35 0.36 0.37 0.39 0.40 0.40 0.40 0.42 0.43 0.44
0.93 0.93 0.94 0.95 0.95 0.95 0.97 0.98 0.99 1.00 1.00 1.01 0.98 0.98 0.97 0.94 0.90 0.91 0.90 0.88 0.85 0.86 0.84 0.68 0.66 0.64 0.49 0.43 0.53 0.74 0.65 0.56 0.58 0.70 0.72 0.71 0.64 0.57 0.62 0.60 0.62 0.61 0.61 0.59 0.63 0.60 0.58 0.55 0.45 0.44 0.43 0.43 0.39 0.37 0.35 0.34 0.34 0.36 0.32 0.29 0.30 0.32 0.32 0.34 0.39 0.40 0.39 0.37 0.37 0.35 0.29 0.31 0.31 0.35 0.36 0.37 0.37 0.37 0.37 0.37 0.39 0.40 0.41 0.42 0.43 0.44 0.44 0.45
0.94 0.96 0.96 0.96 0.97 0.98 0.98 1.00 1.00 1.01 1.02 1.02 1.01 0.99 0.99 0.95 0.93 0.91 0.89 0.88 0.86 0.89 0.85 0.66 0.69 0.66 0.42 0.59 0.72 0.58 0.56 0.64 0.72 0.70 0.69 0.72 0.68 0.64 0.60 0.56 0.52 0.53 0.56 0.56 0.56 0.54 0.52 0.46 0.47 0.44 0.44 0.40 0.41 0.39 0.32 0.30 0.30 0.32 0.35 0.31 0.33 0.31 0.33 0.32 0.39 0.42 0.40 0.37 0.34 0.36 0.31 0.31 0.33 0.35 0.36 0.38 0.39 0.39 0.39 0.40 0.41 0.42 0.43 0.44 0.46 0.46 0.46 0.46
1.00 1.00 0.99 1.00 1.00 1.01 1.02 1.02 1.03 1.04 1.05 1.04 1.01 0.98 0.96 0.96 0.96 0.95 0.89 0.87 0.90 0.86 0.81 0.86 0.78 0.58 0.50 0.63 0.50 0.54 0.66 0.65 0.68 0.70 0.70 0.72 0.72 0.66 0.61 0.55 0.57 0.54 0.53 0.49 0.51 0.44 0.47 0.40 0.43 0.36 0.40 0.40 0.40 0.37 0.31 0.27 0.30 0.31 0.32 0.32 0.32 0.35 0.35 0.33 0.32 0.36 0.39 0.38 0.34 0.34 0.32 0.31 0.33 0.35 0.36 0.38 0.41 0.41 0.41 0.42 0.42 0.42 0.44 0.45 0.45 0.45 0.45 0.45
1.03 1.05 1.05 1.05 1.06 1.06 1.08 1.10 1.10 1.11 1.10 1.09 1.07 1.06 1.06 1.03 0.98 0.94 0.84 0.82 0.70 0.60 0.51 0.53 0.55 0.41 0.39 0.51 0.62 0.64 0.66 0.71 0.74 0.68 0.60 0.64 0.69 0.69 0.65 0.64 0.59 0.53 0.48 0.46 0.46 0.47 0.47 0.43 0.43 0.39 0.36 0.38 0.38 0.38 0.34 0.35 0.36 0.34 0.35 0.34 0.33 0.31 0.32 0.32 0.36 0.39 0.38 0.34 0.33 0.32 0.30 0.32 0.34 0.35 0.38 0.40 0.43 0.42 0.42 0.43 0.44 0.44 0.44 0.44 0.44 0.44 0.44 0.44
1.08 1.09 1.09 1.10 1.12 1.13 1.14 1.16 1.17 1.15 1.14 1.07 1.04 1.00 0.96 0.78 0.75 0.69 0.75 0.76 0.65 0.63 0.63 0.63 0.63 0.62 0.61 0.61 0.61 0.72 0.78 0.75 0.60 0.67 0.66 0.70 0.68 0.64 0.61 0.61 0.56 0.55 0.49 0.44 0.47 0.48 0.51 0.41 0.39 0.39 0.41 0.42 0.43 0.43 0.41 0.41 0.40 0.38 0.37 0.35 0.33 0.33 0.33 0.37 0.37 0.39 0.41 0.35 0.33 0.34 0.34 0.34 0.35 0.37 0.39 0.42 0.43 0.43 0.43 0.43 0.43 0.43 0.43 0.43 0.43 0.43 0.44 0.44
1.17 1.18 1.18 1.19 1.20 1.21 1.21 1.21 1.20 1.20 1.19 1.13 1.06 0.88 0.66 0.68 0.57 0.55 0.68 0.73 0.77 0.77 0.71 0.71 0.70 0.66 0.63 0.69 0.71 0.69 0.62 0.64 0.70 0.70 0.71 0.79 0.72 0.64 0.55 0.57 0.51 0.46 0.49 0.51 0.48 0.54 0.52 0.42 0.42 0.45 0.47 0.48 0.47 0.47 0.45 0.42 0.41 0.38 0.36 0.35 0.34 0.35 0.31 0.36 0.36 0.40 0.41 0.35 0.33 0.36 0.35 0.35 0.36 0.38 0.41 0.44 0.43 0.42 0.42 0.42 0.42 0.42 0.43 0.43 0.43 0.43 0.43 0.44
1.23 1.24 1.25 1.27 1.28 1.28 1.27 1.26 1.26 1.25 1.25 1.18 1.06 0.87 0.85 0.87 0.91 0.92 0.81 0.60 0.74 0.80 0.79 0.76 0.79 0.71 0.78 0.76 0.79 0.79 0.74 0.63 0.65 0.71 0.80 0.79 0.69 0.61 0.59 0.58 0.53 0.48 0.54 0.54 0.53 0.49 0.45 0.43 0.48 0.51 0.53 0.52 0.50 0.49 0.47 0.44 0.41 0.41 0.38 0.36 0.34 0.35 0.37 0.38 0.38 0.39 0.39 0.36 0.32 0.35 0.33 0.35 0.37 0.40 0.43 0.43 0.43 0.44 0.45 0.43 0.42 0.42 0.42 0.42 0.42 0.42 0.43 0.43
1.29 1.29 1.31 1.32 1.31 1.30 1.30 1.29 1.28 1.29 1.21 1.08 0.96 0.94 0.91 1.02 1.05 1.05 0.94 0.76 0.66 0.79 0.76 0.75 0.71 0.73 0.75 0.82 0.83 0.85 0.67 0.63 0.60 0.71 0.75 0.77 0.67 0.66 0.63 0.57 0.55 0.56 0.56 0.54 0.47 0.46 0.41 0.45 0.53 0.55 0.54 0.51 0.49 0.49 0.47 0.45 0.44 0.41 0.39 0.36 0.33 0.36 0.33 0.29 0.36 0.38 0.40 0.37 0.35 0.36 0.34 0.35 0.39 0.42 0.44 0.44 0.43 0.45 0.46 0.45 0.44 0.44 0.42 0.42 0.42 0.43 0.42 0.42
1.33 1.33 1.33 1.32 1.32 1.30 1.30 1.30 1.30 1.23 1.14 1.07 1.01 0.98 1.07 1.10 1.07 1.02 0.85 0.66 0.61 0.71 0.77 0.79 0.79 0.77 0.76 0.74 0.83 0.79 0.70 0.69 0.71 0.68 0.84 0.76 0.65 0.70 0.63 0.59 0.56 0.55 0.51 0.52 0.51 0.46 0.44 0.51 0.57 0.56 0.53 0.50 0.46 0.47 0.45 0.42 0.38 0.41 0.39 0.36 0.34 0.34 0.35 0.34 0.34 0.39 0.40 0.41 0.41 0.37 0.34 0.34 0.37 0.37 0.40 0.43 0.44 0.43 0.43 0.44 0.44 0.44 0.45 0.45 0.45 0.44 0.43 0.42
1.35 1.36 1.37 1.35 1.33 1.34 1.31 1.31 1.15 1.12 1.17 1.10 1.02 1.11 1.13 1.12 1.10 1.03 0.82 0.70 0.68 0.65 0.87 0.81 0.85 0.82 0.82 0.96 0.90 0.74 0.74 0.75 0.73 0.78 0.80 0.77 0.68 0.65 0.61 0.65 0.58 0.50 0.53 0.53 0.51 0.47 0.46 0.54 0.57 0.52 0.51 0.49 0.46 0.43 0.42 0.40 0.35 0.36 0.39 0.38 0.37 0.38 0.36 0.38 0.40 0.37 0.35 0.33 0.38 0.36 0.26 0.26 0.34 0.36 0.37 0.39 0.38 0.39 0.42 0.41 0.41 0.42 0.43 0.44 0.42 0.42 0.43 0.43
1.38 1.39 1.40 1.40 1.38 1.36 1.38 1.11 1.09 1.19 1.09 1.01 1.07 1.15 1.18 1.16 1.13 1.05 0.83 0.59 0.46 0.61 0.76 0.60 0.85 0.69 0.90 0.75 0.81 0.77 0.76 0.62 0.75 0.78 0.80 0.80 0.80 0.67 0.62 0.56 0.57 0.48 0.52 0.52 0.49 0.47 0.47 0.54 0.53 0.49 0.48 0.46 0.44 0.41 0.43 0.42 0.36 0.34 0.35 0.45 0.42 0.40 0.40 0.39 0.38 0.37 0.29 0.27 0.34 0.38 0.27 0.22 0.32 0.32 0.35 0.36 0.36 0.37 0.40 0.40 0.41 0.43 0.43 0.43 0.42 0.41 0.42 0.42
1.42 1.43 1.43 1.43 1.43 1.42 1.17 0.99 1.25 1.22 1.00 1.04 1.23 1.27 1.24 1.20 1.21 1.03 0.73 0.53 0.43 0.65 0.61 0.76 0.72 0.70 0.76 0.71 0.71 0.73 0.45 0.50 0.72 0.75 0.73 0.78 0.67 0.74 0.55 0.52 0.55 0.56 0.56 0.54 0.48 0.42 0.50 0.50 0.50 0.49 0.46 0.43 0.41 0.38 0.42 0.42 0.36 0.33 0.42 0.44 0.42 0.40 0.39 0.39 0.38 0.36 0.32 0.36 0.36 0.36 0.33 0.25 0.22 0.29 0.34 0.36 0.35 0.36 0.38 0.39 0.40 0.42 0.43 0.42 0.41 0.40 0.40 0.41
1.44 1.45 1.46 1.46 1.46 1.43 1.24 1.30 1.24 1.12 1.11 1.24 1.32 1.29 1.27 1.23 1.16 1.04 0.69 0.38 0.36 0.72 0.58 0.68 0.69 0.82 0.70 0.65 0.67 0.55 0.54 0.62 0.50 0.59 0.69 0.73 0.70 0.62 0.57 0.51 0.49 0.50 0.52 0.49 0.35 0.48 0.47 0.44 0.45 0.43 0.43 0.41 0.39 0.41 0.45 0.45 0.39 0.38 0.45 0.46 0.43 0.43 0.41 0.40 0.37 0.34 0.33 0.31 0.26 0.31 0.35 0.26 0.22 0.27 0.35 0.35 0.32 0.34 0.36 0.38 0.40 0.42 0.42 0.40 0.39 0.40 0.39 0.40
1.45 1.46 1.48 1.48 1.49 1.49 1.47 1.34 1.25 1.15 1.29 1.33 1.33 1.30 1.28 1.18 1.05 0.79 0.57 0.37 0.56 0.57 0.75 0.57 0.80 0.69 0.62 0.63 0.58 0.56 0.53 0.56 0.44 0.55 0.65 0.68 0.69 0.60 0.49 0.53 0.52 0.50 0.51 0.47 0.39 0.44 0.48 0.47 0.47 0.46 0.42 0.38 0.43 0.45 0.47 0.46 0.40 0.46 0.49 0.48 0.46 0.44 0.41 0.39 0.35 0.33 0.32 0.28 0.22 0.28 0.32 0.24 0.21 0.28 0.31 0.33 0.32 0.32 0.36 0.39 0.40 0.41 0.41 0.40 0.39 0.40 0.40 0.40
1.46 1.47 1.50 1.51 1.49 1.42 1.39 1.42 1.29 1.36 1.39 1.37 1.34 1.33 1.28 1.10 0.87 0.60 0.46 0.32 0.60 0.49 0.59 0.61 0.59 0.53 0.58 0.52 0.52 0.54 0.49 0.51 0.54 0.55 0.59 0.55 0.60 0.63 0.57 0.59 0.52 0.48 0.45 0.48 0.44 0.44 0.46 0.51 0.52 0.47 0.42 0.44 0.45 0.47 0.49 0.49 0.47 0.50 0.48 0.42 0.40 0.39 0.37 0.37 0.36 0.33 0.30 0.23 0.23 0.29 0.31 0.28 0.21 0.26 0.29 0.28 0.31 0.34 0.38 0.40 0.41 0.41 0.41 0.40 0.40 0.40 0.40 0.39
1.48 1.50 1.50 1.53 1.34 1.37 1.37 1.19 1.33 1.43 1.41 1.39 1.39 1.30 1.15 0.93 0.65 0.49 0.34 0.45 0.62 0.56 0.60 0.56 0.53 0.60 0.52 0.49 0.46 0.53 0.51 0.51 0.50 0.52 0.48 0.55 0.52 0.55 0.53 0.48 0.52 0.46 0.44 0.43 0.42 0.45 0.46 0.47 0.45 0.47 0.51 0.50 0.50 0.46 0.50 0.51 0.50 0.46 0.40 0.37 0.35 0.33 0.37 0.34 0.33 0.34 0.24 0.20 0.25 0.31 0.30 0.32 0.21 0.24 0.30 0.34 0.36 0.37 0.37 0.36 0.38 0.38 0.38 0.38 0.39 0.40 0.41 0.41
1.47 1.49 1.51 1.47 1.45 1.48 1.20 1.13 1.35 1.42 1.39 1.39 1.32 1.11 0.92 0.58 0.66 0.41 0.38 0.70 0.45 0.54 0.53 0.51 0.57 0.55 0.53 0.55 0.51 0.49 0.48 0.50 0.51 0.50 0.46 0.47 0.46 0.45 0.46 0.40 0.43 0.35 0.34 0.36 0.35 0.46 0.42 0.43 0.47 0.46 0.51 0.47 0.44 0.41 0.43 0.45 0.44 0.42 0.39 0.36 0.29 0.26 0.27 0.22 0.27 0.22 0.22 0.19 0.26 0.30 0.31 0.28 0.26 0.28 0.33 0.35 0.35 0.36 0.37 0.37 0.37 0.37 0.38 0.39 0.40 0.41 0.42 0.43
1.45 1.46 1.48 1.47 1.46 1.37 1.36 1.39 1.40 1.37 1.38 1.33 1.16 1.01 0.71 0.53 0.36 0.49 0.51 0.56 0.49 0.61 0.58 0.64 0.56 0.55 0.54 0.52 0.49 0.51 0.53 0.45 0.51 0.49 0.51 0.50 0.47 0.47 0.50 0.48 0.48 0.42 0.32 0.39 0.36 0.36 0.36 0.44 0.45 0.45 0.46 0.48 0.45 0.36 0.36 0.36 0.40 0.39 0.36 0.33 0.28 0.22 0.21 0.19 0.20 0.23 0.22 0.26 0.31 0.28 0.32 0.24 0.27 0.31 0.36 0.36 0.38 0.40 0.40 0.41 0.41 0.40 0.40 0.41 0.42 0.43 0.43 0.43
1.42 1.43 1.37 1.39 1.39 1.39 1.39 1.38 1.35 1.34 1.26 1.22 1.02 0.81 0.66 0.45 0.41 0.61 0.55 0.56 0.57 0.68 0.65 0.59 0.58 0.57 0.55 0.48 0.50 0.52 0.45 0.52 0.50 0.48 0.50 0.47 0.47 0.43 0.47 0.50 0.50 0.45 0.43 0.42 0.35 0.35 0.30 0.31 0.39 0.44 0.38 0.48 0.45 0.42 0.41 0.39 0.39 0.37 0.39 0.34 0.29 0.26 0.22 0.19 0.19 0.18 0.19 0.20 0.25 0.30 0.24 0.21 0.20 0.23 0.37 0.38 0.40 0.41 0.42 0.43 0.43 0.43 0.43 0.43 0.43 0.43 0.43 0.43
1.38 1.36 1.33 1.32 1.30 1.33 1.33 1.35 1.32 1.32 1.23 1.06 0.85 0.68 0.47 0.43 0.52 0.50 0.52 0.57 0.62 0.64 0.59 0.64 0.56 0.54 0.50 0.52 0.56 0.55 0.53 0.47 0.53 0.50 0.48 0.46 0.43 0.45 0.44 0.47 0.52 0.51 0.48 0.37 0.42 0.40 0.36 0.35 0.43 0.50 0.50 0.50 0.44 0.47 0.48 0.43 0.39 0.40 0.40 0.40 0.32 0.28 0.32 0.24 0.24 0.24 0.24 0.24 0.23 0.24 0.24 0.28 0.27 0.36 0.39 0.40 0.40 0.39 0.39 0.38 0.38 0.38 0.39 0.39 0.38 0.39 0.40 0.42
1.30 1.25 1.28 1.19 1.19 1.26 1.31 1.31 1.29 1.26 1.12 0.91 0.71 0.56 0.46 0.51 0.48 0.59 0.55 0.67 0.65 0.58 0.59 0.61 0.58 0.50 0.49 0.50 0.55 0.52 0.59 0.49 0.52 0.51 0.49 0.49 0.50 0.46 0.51 0.51 0.49 0.52 0.47 0.40 0.43 0.34 0.35 0.30 0.44 0.46 0.48 0.45 0.44 0.46 0.44 0.44 0.27 0.37 0.37 0.31 0.33 0.43 0.36 0.30 0.30 0.30 0.29 0.26 0.20 0.24 0.24 0.26 0.33 0.32 0.33 0.34 0.33 0.34 0.36 0.36 0.36 0.36 0.37 0.37 0.37 0.39 0.41 0.43
1.16 1.20 1.08 1.12 1.14 1.26 1.29 1.29 1.26 1.17 1.05 0.82 0.62 0.48 0.57 0.60 0.65 0.62 0.64 0.60 0.63 0.64 0.58 0.48 0.50 0.49 0.46 0.44 0.46 0.49 0.52 0.54 0.51 0.49 0.43 0.51 0.46 0.50 0.49 0.50 0.55 0.51 0.51 0.45 0.39 0.43 0.31 0.30 0.45 0.42 0.39 0.46 0.48 0.48 0.46 0.46 0.44 0.38 0.30 0.34 0.43 0.45 0.39 0.31 0.22 0.24 0.21 0.18 0.17 0.19 0.16 0.17 0.18 0.15 0.27 0.29 0.28 0.30 0.32 0.33 0.35 0.36 0.36 0.36 0.37 0.39 0.41 0.43
1.09 1.07 1.06 1.05 1.13 1.25 1.29 1.28 1.22 1.11 0.94 0.74 0.55 0.54 0.67 0.57 0.69 0.66 0.70 0.65 0.63 0.63 0.54 0.50 0.52 0.54 0.45 0.44 0.43 0.47 0.52 0.46 0.46 0.48 0.43 0.48 0.41 0.53 0.49 0.46 0.53 0.50 0.50 0.51 0.40 0.41 0.41 0.30 0.35 0.42 0.41 0.44 0.47 0.44 0.41 0.45 0.46 0.36 0.32 0.42 0.28 0.22 0.21 0.27 0.24 0.16 0.14 0.13 0.15 0.18 0.17 0.17 0.17 0.18 0.24 0.25 0.28 0.29 0.32 0.34 0.34 0.34 0.35 0.37 0.39 0.41 0.43 0.45
1.05 0.98 0.86 1.00 1.18 1.23 1.25 1.27 1.15 0.98 0.81 0.63 0.56 0.53 0.63 0.64 0.72 0.69 0.71 0.69 0.68 0.61 0.52 0.53 0.48 0.54 0.51 0.45 0.46 0.50 0.50 0.43 0.49 0.46 0.41 0.45 0.40 0.51 0.47 0.50 0.47 0.51 0.51 0.49 0.42 0.43 0.44 0.30 0.31 0.43 0.42 0.43 0.42 0.37 0.26 0.32 0.40 0.41 0.41 0.34 0.38 0.29 0.23 0.19 0.20 0.21 0.20 0.15 0.15 0.15 0.19 0.15 0.20 0.23 0.26 0.28 0.31 0.32 0.32 0.33 0.34 0.35 0.37 0.39 0.41 0.43 0.44 0.45
0.94 0.84 0.78 1.10 1.18 1.21 1.25 1.20 0.99 0.88 0.72 0.54 0.57 0.60 0.72 0.65 0.70 0.74 0.73 0.69 0.64 0.60 0.55 0.52 0.56 0.49 0.53 0.51 0.52 0.46 0.51 0.49 0.48 0.47 0.46 0.48 0.43 0.54 0.48 0.54 0.46 0.48 0.51 0.52 0.46 0.48 0.38 0.41 0.26 0.36 0.42 0.39 0.29 0.32 0.26 0.29 0.27 0.29 0.28 0.26 0.28 0.27 0.33 0.29 0.29 0.22 0.19 0.18 0.18 0.16 0.15 0.17 0.23 0.30 0.29 0.30 0.32 0.33 0.34 0.33 0.34 0.36 0.37 0.40 0.42 0.42 0.42 0.42
0.97 0.81 0.80 1.11 1.16 1.20 1.17 1.01 0.80 0.68 0.63 0.66 0.68 0.64 0.68 0.63 0.69 0.72 0.75 0.77 0.71 0.78 0.64 0.59 0.57 0.51 0.53 0.52 0.52 0.57 0.50 0.50 0.50 0.47 0.50 0.49 0.48 0.41 0.57 0.51 0.52 0.48 0.53 0.49 0.45 0.46 0.36 0.37 0.28 0.30 0.30 0.27 0.26 0.36 0.35 0.34 0.34 0.30 0.28 0.25 0.26 0.24 0.21 0.19 0.17 0.27 0.26 0.23 0.19 0.19 0.17 0.23 0.29 0.33 0.32 0.33 0.33 0.34 0.36 0.36 0.36 0.37 0.39 0.41 0.42 0.42 0.42 0.42
0.81 0.66 0.73 1.08 1.16 1.14 0.96 0.71 0.70 0.75 0.66 0.58 0.57 0.64 0.60 0.72 0.65 0.66 0.70 0.75 0.73 0.67 0.76 0.66 0.64 0.59 0.58 0.55 0.55 0.50 0.51 0.51 0.52 0.51 0.53 0.48 0.54 0.52 0.58 0.64 0.58 0.57 0.49 0.42 0.42 0.51 0.42 0.41 0.33 0.26 0.25 0.25 0.30 0.37 0.43 0.41 0.39 0.36 0.34 0.28 0.32 0.32 0.31 0.25 0.17 0.19 0.25 0.27 0.29 0.26 0.22 0.23 0.33 0.35 0.35 0.35 0.34 0.34 0.36 0.38 0.38 0.39 0.40 0.41 0.42 0.43 0.43 0.43
0.74 0.67 0.98 1.04 1.12 1.04 0.83 0.66 0.69 0.66 0.61 0.64 0.73 0.70 0.71 0.66 0.61 0.65 0.63 0.67 0.62 0.68 0.65 0.61 0.58 0.55 0.58 0.55 0.55 0.53 0.53 0.47 0.50 0.48 0.52 0.52 0.53 0.57 0.61 0.61 0.61 0.55 0.53 0.48 0.48 0.49 0.48 0.35 0.28 0.28 0.31 0.33 0.36 0.40 0.42 0.41 0.37 0.32 0.34 0.34 0.30 0.27 0.29 0.26 0.25 0.27 0.23 0.23 0.21 0.21 0.18 0.20 0.30 0.36 0.36 0.37 0.38 0.39 0.40 0.40 0.39 0.39 0.42 0.43 0.43 0.42 0.42 0.42
0.73 0.73 0.79 1.00 1.08 1.00 0.73 0.53 0.53 0.58 0.61 0.66 0.66 0.62 0.68 0.63 0.60 0.57 0.56 0.59 0.57 0.58 0.55 0.56 0.60 0.61 0.53 0.57 0.54 0.47 0.52 0.41 0.49 0.47 0.46 0.51 0.49 0.61 0.60 0.59 0.58 0.50 0.46 0.44 0.37 0.49 0.32 0.36 0.30 0.24 0.24 0.24 0.25 0.29 0.32 0.38 0.35 0.30 0.28 0.31 0.32 0.31 0.31 0.32 0.31 0.32 0.23 0.23 0.22 0.21 0.15 0.19 0.35 0.40 0.40 0.40 0.41 0.38 0.39 0.41 0.42 0.40 0.40 0.40 0.40 0.40 0.39 0.38
0.71 0.78 0.78 0.85 0.96 0.89 0.62 0.64 0.59 0.57 0.57 0.57 0.57 0.53 0.55 0.57 0.59 0.56 0.55 0.53 0.58 0.57 0.54 0.52 0.53 0.55 0.53 0.55 0.51 0.51 0.52 0.46 0.40 0.48 0.46 0.48 0.48 0.57 0.56 0.54 0.54 0.48 0.50 0.51 0.47 0.51 0.36 0.32 0.29 0.20 0.15 0.12 0.10 0.10 0.13 0.20 0.26 0.28 0.28 0.27 0.28 0.26 0.26 0.25 0.20 0.24 0.20 0.26 0.26 0.21 0.18 0.25 0.34 0.35 0.35 0.37 0.36 0.35 0.34 0.33 0.34 0.33 0.31 0.31 0.32 0.32 0.32 0.30
0.65 0.52 0.67 0.71 0.78 0.76 0.71 0.76 0.69 0.60 0.55 0.54 0.51 0.51 0.52 0.48 0.53 0.58 0.57 0.53 0.56 0.56 0.55 0.53 0.54 0.54 0.49 0.48 0.45 0.45 0.44 0.51 0.44 0.41 0.42 0.40 0.45 0.48 0.51 0.51 0.48 0.46 0.47 0.47 0.47 0.45 0.35 0.35 0.31 0.27 0.22 0.18 0.18 0.20 0.29 0.29 0.28 0.22 0.22 0.23 0.22 0.25 0.25 0.24 0.23 0.20 0.16 0.18 0.17 0.18 0.19 0.20 0.21 0.21 0.24 0.27 0.27 0.24 0.23 0.24 0.25 0.25 0.26 0.26 0.25 0.24 0.23 0.22
0.69 0.56 0.58 0.54 0.67 0.68 0.62 0.66 0.61 0.61 0.52 0.56 0.46 0.49 0.44 0.45 0.45 0.48 0.55 0.41 0.51 0.50 0.53 0.52 0.51 0.47 0.47 0.47 0.43 0.42 0.44 0.42 0.46 0.42 0.37 0.36 0.42 0.43 0.48 0.47 0.47 0.46 0.46 0.44 0.46 0.41 0.34 0.28 0.28 0.29 0.28 0.26 0.27 0.27 0.30 0.31 0.25 0.24 0.22 0.19 0.21 0.21 0.21 0.21 0.19 0.17 0.23 0.19 0.14 0.16 0.16 0.15 0.14 0.14 0.15 0.18 0.22 0.22 0.20 0.20 0.21 0.22 0.22 0.22 0.22 0.22 0.21 0.21
0.53 0.58 0.62 0.65 0.53 0.48 0.51 0.53 0.59 0.56 0.57 0.56 0.48 0.49 0.42 0.40 0.40 0.37 0.47 0.49 0.47 0.50 0.41 0.46 0.49 0.47 0.45 0.42 0.42 0.36 0.36 0.35 0.37 0.32 0.36 0.38 0.38 0.42 0.40 0.45 0.42 0.45 0.44 0.42 0.45 0.36 0.30 0.24 0.26 0.28 0.27 0.28 0.28 0.28 0.28 0.25 0.23 0.21 0.19 0.17 0.15 0.15 0.16 0.15 0.16 0.17 0.16 0.14 0.10 0.11 0.12 0.13 0.13 0.13 0.14 0.16 0.17 0.18 0.20 0.20 0.20 0.21 0.22 0.22 0.21 0.20 0.20 0.21
0.61 0.59 0.58 0.66 0.52 0.54 0.53 0.52 0.55 0.53 0.52 0.54 0.49 0.46 0.40 0.38 0.36 0.39 0.38 0.37 0.39 0.39 0.42 0.31 0.35 0.39 0.42 0.44 0.39 0.33 0.33 0.27 0.27 0.34 0.33 0.33 0.35 0.36 0.33 0.36 0.40 0.43 0.40 0.38 0.39 0.39 0.32 0.26 0.27 0.27 0.24 0.23 0.22 0.22 0.22 0.20 0.18 0.18 0.16 0.15 0.14 0.13 0.13 0.15 0.14 0.13 0.14 0.13 0.13 0.12 0.13 0.12 0.12 0.14 0.17 0.18 0.19 0.19 0.20 0.21 0.21 0.19 0.19 0.20 0.21 0.21 0.22 0.22
0.51 0.50 0.48 0.59 0.57 0.53 0.53 0.54 0.54 0.52 0.46 0.48 0.40 0.39 0.37 0.38 0.35 0.39 0.41 0.36 0.29 0.32 0.42 0.33 0.32 0.36 0.38 0.38 0.37 0.31 0.32 0.33 0.31 0.28 0.35 0.33 0.33 0.35 0.32 0.34 0.32 0.37 0.37 0.34 0.34 0.37 0.27 0.20 0.23 0.20 0.17 0.15 0.17 0.20 0.19 0.18 0.16 0.13 0.12 0.12 0.11 0.12 0.12 0.11 0.10 0.11 0.12 0.13 0.14 0.14 0.14 0.13 0.15 0.18 0.18 0.19 0.19 0.20 0.19 0.18 0.19 0.20 0.21 0.22 0.22 0.22 0.23 0.23
0.53 0.54 0.54 0.47 0.45 0.48 0.50 0.51 0.48 0.45 0.41 0.42 0.38 0.37 0.39 0.39 0.35 0.40 0.39 0.45 0.37 0.33 0.35 0.31 0.35 0.36 0.38 0.37 0.36 0.35 0.39 0.38 0.38 0.36 0.37 0.36 0.30 0.37 0.32 0.32 0.37 0.30 0.32 0.28 0.28 0.26 0.25 0.19 0.23 0.20 0.15 0.12 0.14 0.15 0.14 0.13 0.12 0.10 0.08 0.08 0.08 0.08 0.08 0.08 0.09 0.10 0.10 0.09 0.11 0.13 0.12 0.12 0.14 0.17 0.17 0.18 0.18 0.17 0.16 0.17 0.18 0.20 0.22 0.23 0.22 0.21 0.20 0.20
0.51 0.52 0.51 0.43 0.37 0.45 0.42 0.46 0.45 0.42 0.34 0.36 0.36 0.37 0.36 0.36 0.39 0.41 0.35 0.44 0.43 0.43 0.41 0.39 0.40 0.37 0.36 0.35 0.33 0.36 0.41 0.41 0.41 0.41 0.42 0.42 0.42 0.40 0.39 0.37 0.35 0.29 0.27 0.25 0.28 0.23 0.23 0.20 0.17 0.16 0.12 0.10 0.10 0.13 0.11 0.11 0.11 0.09 0.07 0.07 0.08 0.09 0.10 0.12 0.12 0.13 0.12 0.13 0.12 0.10 0.10 0.13 0.16 0.18 0.16 0.17 0.17 0.17 0.17 0.19 0.20 0.20 0.20 0.19 0.18 0.16 0.16 0.15
Wind_Speed
11 11 10 10 10 10 10 10 10 10 10 10 10 10 10 10 10 10 10 10 11 11 11 11 12 12 12 13 13 13 14 13 14 14 14 14 12 11 10 10 10 10 10 10 10 10 11 11 12 11 11 12 12 12 12 12 12 11 11 10 12 11 11 10 10 11 11 12 13 14 13 12 14 14 14 14 14 15 16 16 15 15 15 15 17 17 16 14
12 12 12 12 12 12 12 11 11 11 11 11 11 11 12 11 12 12 12 12 12 12 12 13 13 13 14 14 14 15 15 14 15 15 14 13 12 10 10 10 10 10 11 11 12 11 11 12 13 12 12 13 13 12 13 12 12 11 11 11 12 12 12 13 13 13 13 14 15 14 14 14 14 15 14 14 15 16 16 17 18 17 17 17 17 17 15 15
14 14 14 13 13 13 13 13 13 12 12 12 12 12 13 13 13 13 13 13 13 13 14 14 14 14 15 15 15 15 15 15 15 14 13 11 10 10 11 11 12 12 12 13 13 13 12 13 13 13 13 13 14 13 13 13 12 12 11 12 13 13 13 15 15 15 15 15 14 15 15 15 16 16 15 15 16 16 16 17 18 19 19 18 18 17 16 16
15 15 15 15 14 14 14 14 14 14 13 13 14 13 14 14 14 14 14 14 14 15 15 15 15 16 16 16 16 16 16 15 14 13 12 11 11 11 12 13 14 13 13 14 14 14 14 14 13 13 13 14 14 13 13 13 13 12 11 12 13 13 14 16 17 17 17 15 14 15 16 16 16 16 15 16 16 16 16 17 18 20 21 20 19 19 19 18
16 16 16 15 15 15 15 15 15 15 14 14 15 15 15 15 15 15 15 16 16 16 16 16 17 17 17 17 17 16 15 14 13 13 13 12 13 14 14 15 15 14 14 14 14 14 14 14 13 14 13 14 15 14 14 14 13 13 13 13 15 14 15 16 18 18 18 16 16 16 16 16 16 16 16 16 16 17 17 18 19 20 21 21 20 20 20 20
17 17 16 16 16 16 16 16 16 16 15 16 16 16 16 16 17 17 17 17 17 18 18 18 18 18 18 18 17 16 15 14 15 14 14 15 15 15 16 16 15 15 15 14 15 14 14 14 14 14 14 14 14 14 15 15 13 14 15 15 17 17 16 17 19 19 19 18 17 17 16 17 17 17 17 17 19 20 20 19 20 21 22 21 20 20 21 21
18 18 17 17 17 17 17 17 17 17 17 17 17 17 18 18 18 18 19 19 19 19 19 19 19 19 19 18 17 16 15 16 17 17 17 16 16 16 16 17 16 15 15 15 15 14 14 14 14 14 14 14 15 15 17 17 15 15 16 17 18 18 18 19 20 19 19 18 19 18 17 18 18 17 17 19 22 23 22 20 21 22 22 22 21 20 20 20
19 19 19 19 19 19 18 18 18 18 18 19 19 19 19 20 20 20 20 20 21 20 20 20 20 20 19 18 17 17 17 19 19 18 18 17 17 17 17 17 16 16 15 15 15 15 14 14 15 15 15 16 16 16 17 17 16 16 17 17 17 18 19 20 20 21 21 21 21 20 19 19 19 18 18 21 23 23 22 21 20 21 21 21 20 20 20 20
21 20 20 20 20 20 20 20 20 20 20 20 20 21 21 21 21 21 21 21 21 21 21 21 21 20 19 18 17 17 18 19 18 18 18 17 18 17 17 17 16 16 16 16 16 15 15 16 16 16 16 17 17 18 17 16 16 17 17 17 18 19 20 21 21 22 23 22 20 19 20 20 20 19 18 21 23 22 22 21 21 21 21 21 20 20 20 20
22 22 22 22 21 21 21 21 21 21 21 21 21 21 21 21 22 22 22 22 21 21 21 20 20 20 19 18 16 16 18 18 18 18 17 17 18 17 17 17 16 16 16 17 17 16 16 17 17 17 17 17 17 18 18 17 17 18 19 19 20 21 21 22 23 24 23 22 21 19 20 21 19 17 18 22 23 22 22 21 21 21 21 21 20 21 20 21
23 23 23 22 22 22 22 22 22 21 21 21 21 21 22 22 21 21 21 21 21 21 20 20 20 19 18 18 16 17 18 18 18 17 17 17 17 17 17 17 17 17 17 18 17 17 17 18 18 17 17 17 18 19 19 18 19 19 20 20 21 21 23 23 23 24 21 19 20 18 20 21 17 16 19 23 24 23 22 22 21 21 21 20 20 21 21 21
24 23 23 23 22 22 22 22 21 21 21 21 21 21 21 21 21 21 21 21 21 21 20 20 20 19 18 18 18 19 19 18 18 17 17 17 17 18 18 18 18 18 18 18 18 18 18 18 18 18 19 18 18 19 19 19 20 20 20 20 22 20 22 23 22 22 19 18 18 16 18 19 17 18 21 24 23 22 22 21 21 21 21 20 20 21 20 20
24 23 23 23 22 22 21 21 21 21 21 21 21 21 21 21 21 22 21 21 21 21 21 20 20 20 19 19 19 20 20 19 19 19 19 19 19 19 19 19 18 18 19 19 19 19 19 19 19 19 20 19 19 19 19 20 21 21 20 19 21 20 20 21 20 20 18 17 17 15 18 20 19 21 22 23 22 22 22 22 22 22 21 20 21 21 19 18
24 23 23 22 22 22 22 21 21 21 21 21 21 22 22 22 22 22 22 22 22 22 21 21 21 20 20 20 20 21 21 20 20 20 21 20 20 20 20 20 19 19 19 19 20 20 19 19 19 20 20 20 20 20 21 21 21 21 20 19 20 19 19 20 19 18 17 18 16 15 19 21 21 22 23 22 22 22 23 23 23 22 21 21 21 19 17 17
24 24 23 23 23 22 22 22 22 22 22 22 23 23 23 23 23 22 22 23 22 22 22 21 21 21 21 21 21 21 21 21 21 21 21 21 20 21 21 20 20 20 20 20 21 21 20 20 20 20 21 21 20 20 21 21 21 20 20 21 20 19 20 21 21 18 16 18 18 17 20 22 22 24 23 22 22 22 22 23 23 22 21 20 18 17 17 18
24 24 24 23 23 23 23 23 23 24 24 24 24 24 24 24 23 23 23 23 22 22 22 22 22 21 21 22 21 20 20 21 21 21 21 21 21 21 20 20 20 20 20 21 21 22 21 21 21 20 21 20 19 19 20 21 21 20 20 21 20 20 20 21 21 19 16 17 19 20 21 22 23 24 24 22 22 22 23 24 23 23 21 17 16 16 17 18
25 24 24 24 24 24 24 24 24 24 24 24 25 25 25 24 24 23 23 23 22 22 22 22 22 22 22 22 21 21 21 21 21 21 21 21 20 20 19 19 20 20 19 20 21 21 21 21 20 20 20 19 18 19 20 21 22 21 20 21 21 20 21 21 22 20 18 18 21 22 23 24 23 23 24 23 23 24 23 24 24 22 18 16 16 16 17 18
25 25 25 24 24 24 24 24 24 24 25 25 25 25 24 24 24 24 23 23 22 22 22 22 21 22 22 22 21 21 20 20 20 20 21 21 20 20 20 20 19 19 19 20 21 20 20 20 20 20 20 20 19 19 21 22 22 21 21 21 22 22 21 22 22 21 20 21 23 24 24 25 24 24 25 25 24 24 24 25 23 19 15 15 16 16 16 17
26 25 25 25 25 25 24 24 24 25 25 25 25 24 24 23 24 24 23 23 23 22 23 23 21 21 22 22 22 21 21 21 21 21 21 21 21 21 21 21 20 20 20 21 22 21 20 20 20 20 21 22 21 21 22 23 22 22 22 22 23 23 23 23 23 23 23 24 25 25 25 25 24 24 25 26 25 24 25 23 18 15 15 16 16 16 16 16
26 26 26 26 25 25 25 25 25 25 25 25 24 24 23 23 23 24 24 24 24 24 24 25 24 24 25 24 23 22 21 21 22 22 22 22 21 21 22 21 21 21 21 21 22 22 20 20 21 22 22 23 23 23 23 23 23 23 23 23 24 24 24 24 24 25 23 24 25 24 23 24 24 24 25 26 25 24 22 17 14 15 16 16 16 16 16 16
27 27 26 26 26 25 25 25 25 25 25 25 24 24 23 23 23 24 25 25 26 27 27 28 27 27 27 25 24 23 23 23 23 23 22 22 22 21 23 22 21 22 22 21 21 21 20 21 23 23 23 24 23 22 23 23 23 23 24 24 24 24 25 25 25 25 22 22 24 22 22 24 24 25 26 25 22 21 17 14 15 16 16 17 16 16 15 15
27 27 27 26 26 26 26 26 26 26 26 25 24 24 24 24 25 25 26 26 27 28 28 29 28 29 28 27 27 25 24 24 23 23 23 22 22 23 23 22 22 23 22 21 21 21 22 23 24 24 24 24 23 22 23 23 23 24 24 24 25 24 24 24 23 21 19 20 22 22 23 25 25 25 25 21 18 17 16 15 17 17 16 16 15 15 15 15
28 28 27 27 27 27 27 27 27 27 26 25 24 24 24 25 25 26 26 27 28 28 28 29 29 30 29 28 27 26 26 25 24 24 23 22 23 24 24 23 23 23 22 22 22 22 23 24 25 25 24 23 24 24 23 24 23 23 23 23 24 23 22 22 22 21 20 21 22 23 25 25 24 24 21 18 16 16 16 16 16 16 16 15 15 16 16 15
29 28 28 28 28 27 27 27 27 26 26 25 25 25 25 25 25 26 26 27 29 28 27 28 28 28 28 27 26 25 26 25 25 25 24 23 24 24 24 24 23 23 23 23 23 24 24 24 24 24 23 22 24 24 23 23 23 22 22 22 23 23 22 22 23 22 22 23 22 23 25 24 23 21 19 19 19 18 18 17 16 17 15 15 16 17 16 17
30 29 29 29 28 28 27 27 27 26 26 25 25 25 25 25 26 26 26 27 29 28 26 26 26 26 26 25 25 24 24 25 24 24 24 23 23 23 24 24 23 23 24 23 23 24 25 24 23 23 23 22 23 23 22 21 22 22 22 22 23 22 22 22 22 22 22 23 22 21 22 24 22 21 21 21 22 21 19 18 17 17 16 16 17 17 17 18
31 31 31 30 29 28 28 28 27 26 26 26 26 25 25 25 25 25 25 26 28 27 24 24 23 23 23 22 22 21 22 23 22 22 22 22 22 22 22 23 22 23 23 22 22 23 23 22 21 21 22 21 21 22 21 19 20 22 22 20 20 19 19 20 21 21 21 22 23 21 21 25 25 24 24 22 22 22 20 20 19 18 17 17 18 18 18 18
32 32 32 31 31 30 29 28 28 27 27 27 26 25 25 25 24 24 24 24 26 24 21 21 20 20 19 19 18 17 18 19 19 19 20 20 21 21 21 21 20 21 21 19 20 22 21 20 19 19 20 20 20 21 20 18 19 22 21 19 18 18 20 21 20 22 23 24 25 24 22 26 27 26 25 22 21 22 20 20 20 18 17 18 18 18 18 18
34 34 33 33 33 32 30 30 29 28 28 27 26 25 25 24 24 23 22 22 23 20 18 18 18 17 17 16 16 16 18 18 17 19 19 18 19 19 19 21 20 20 20 18 21 22 20 20 20 19 18 19 20 21 20 18 20 22 22 19 19 19 21 21 21 23 25 25 26 25 22 24 27 27 24 22 22 22 20 19 19 18 18 18 19 19 18 17
36 36 35 34 34 34 33 31 30 28 27 26 25 25 25 24 24 22 21 22 21 19 19 19 18 18 17 17 18 18 19 19 18 19 19 18 18 17 18 20 19 20 21 20 21 22 21 20 20 19 19 21 21 21 19 19 20 21 21 20 20 21 22 22 22 23 24 24 26 25 22 23 26 26 23 21 23 22 20 20 20 19 19 20 20 20 19 17
37 36 36 35 34 34 33 32 30 28 27 25 25 24 24 24 23 22 23 23 21 21 20 20 20 20 18 19 20 20 19 19 19 18 18 18 18 18 19 19 19 19 20 20 21 22 22 21 21 20 21 21 20 19 19 19 20 20 20 21 22 23 23 23 23 23 23 25 26 25 24 23 24 25 22 22 23 21 19 20 20 20 21 21 21 20 19 18
36 36 35 34 34 33 31 30 30 28 27 26 25 24 23 23 22 22 24 23 21 21 21 20 20 20 19 19 20 21 20 19 19 18 19 19 19 19 19 19 19 19 20 22 22 22 22 21 22 22 21 20 18 19 20 20 20 20 20 21 22 23 22 22 23 22 22 25 26 25 23 23 24 25 23 24 24 22 21 21 21 22 22 22 21 20 20 19
35 35 34 33 32 31 30 29 29 28 28 27 25 24 22 22 23 24 23 21 20 21 21 21 21 20 20 20 20 21 20 20 21 20 20 20 20 20 20 20 19 19 21 22 22 22 22 23 23 22 22 21 19 21 22 22 21 20 21 21 21 22 21 22 23 22 23 25 25 23 22 23 26 27 25 26 27 26 23 22 22 22 22 21 21 21 20 20
33 32 31 31 31 30 30 28 28 27 27 26 25 24 22 23 24 24 23 22 20 20 19 19 20 20 20 21 22 22 20 21 21 21 21 20 20 22 22 21 20 20 21 22 22 23 24 25 24 22 23 22 20 21 22 22 21 20 20 20 20 20 21 23 24 23 24 26 25 24 24 25 27 27 26 27 27 25 21 20 21 21 21 21 22 22 22 22
30 30 29 30 29 29 29 28 27 26 25 24 23 23 24 25 24 23 24 24 23 22 21 20 20 21 21 22 23 22 21 22 22 22 22 21 21 22 23 23 22 22 22 22 23 23 23 25 23 21 22 21 20 21 21 20 21 22 22 21 22 22 22 24 24 24 25 26 26 27 26 26 26 26 26 25 25 23 21 21 22 22 23 24 24 25 25 25
28 28 29 29 28 28 27 27 26 25 25 24 22 24 26 26 24 23 24 24 24 23 23 23 22 22 23 23 23 23 22 23 23 22 23 23 23 23 23 24 24 23 22 22 23 23 23 25 24 22 22 21 21 23 22 21 23 24 23 22 24 24 23 25 26 26 26 27 29 29 28 28 28 28 28 27 26 26 26 25 25 25 26 26 26 26 26 26
28 28 28 28 28 28 27 28 27 26 26 24 24 27 28 26 24 24 24 23 23 23 23 24 23 23 24 24 24 25 24 24 24 23 24 25 25 25 25 24 24 23 22 22 23 22 23 26 25 23 23 23 23 23 23 23 24 24 23 24 26 25 25 26 28 29 27 28 30 30 30 30 29 29 30 29 27 27 27 26 25 25 26 26 26 26 26 27
28 28 28 28 28 28 28 28 27 27 27 25 27 29 28 26 25 25 24 23 23 23 23 24 24 24 25 25 25 26 25 25 25 24 25 25 25 25 25 24 24 24 24 23 24 24 25 27 28 26 25 26 25 24 25 25 25 25 26 27 27 26 26 26 27 27 28 28 29 30 31 31 29 29 30 28 26 26 26 26 25 25 26 26 26 27 27 27
27 27 28 29 29 29 29 28 27 27 26 26 29 29 27 26 26 25 25 24 24 23 24 25 25 24 25 25 26 25 25 25 25 25 25 25 25 25 24 24 25 25 25 24 25 26 26 27 30 28 27 27 27 26 27 27 27 27 28 28 27 27 27 26 25 26 27 28 28 29 31 31 30 30 29 28 26 25 25 25 25 26 26 26 26 27 27 28
28 27 27 28 29 29 29 28 27 27 27 28 29 29 27 27 27 26 25 25 25 24 25 25 25 25 25 25 25 24 24 26 26 26 26 26 26 26 25 26 26 26 25 24 25 26 25 26 28 28 27 27 27 27 28 28 28 27 27 28 27 27 27 27 26 26 26 27 28 28 29 29 30 29 27 27 26 25 25 25 26 27 27 28 28 28 29 30
28 27 27 28 29 29 29 29 28 28 29 29 28 28 27 28 28 27 26 25 25 25 25 26 25 26 26 25 26 26 26 26 26 27 27 27 27 26 26 26 26 26 26 24 24 26 26 27 29 29 28 27 27 28 27 26 26 26 26 27 27 27 27 28 28 28 26 26 27 28 29 29 30 29 28 28 27 26 26 27 28 29 30 30 30 30 31 32
29 29 29 29 30 31 30 30 30 29 30 30 29 28 28 28 28 28 27 26 26 26 26 27 27 27 27 27 28 27 26 27 27 27 28 28 27 26 27 27 27 27 26 25 26 28 28 28 29 30 30 29 29 29 27 26 26 26 26 27 27 27 27 27 28 28 28 27 27 28 30 29 30 30 30 29 29 29 28 28 29 30 31 32 32 32 33 33
31 31 30 30 31 32 31 31 31 30 31 31 30 29 29 29 29 30 29 28 28 28 28 29 30 30 29 30 29 28 27 28 28 28 29 30 29 28 29 29 28 28 28 28 29 30 29 29 30 32 33 32 32 30 29 28 28 27 28 28 28 27 27 28 28 29 29 30 29 29 30 30 31 32 31 29 30 30 29 29 29 31 32 33 34 34 34 35
34 33 32 32 33 33 32 32 32 32 32 31 30 30 30 30 30 31 31 30 30 30 31 31 31 32 32 31 31 30 30 30 31 31 31 31 31 31 31 31 31 30 30 30 31 30 29 29 30 32 33 33 33 32 31 31 29 28 29 29 29 30 30 30 31 30 30 31 31 30 30 31 32 32 30 28 28 28 29 29 30 32 33 34 35 36 36 37
34 34 34 34 35 35 35 34 33 34 33 32 31 33 33 33 33 33 33 32 32 32 32 33 33 33 34 32 32 32 32 32 33 33 32 32 32 32 32 32 32 32 32 32 31 30 30 29 29 29 30 31 32 31 30 30 28 28 29 29 29 29 29 29 31 30 30 31 30 29 31 31 31 30 29 28 28 29 30 32 33 33 35 36 36 37 37 37
34 34 35 35 36 37 37 35 34 35 35 34 35 35 34 34 35 35 35 34 34 34 34 35 35 34 34 33 34 35 34 33 34 33 32 32 32 32 33 32 32 32 32 32 30 30 30 30 29 28 29 30 31 29 28 28 27 27 29 29 29 29 29 29 30 30 30 30 29 30 32 32 31 31 31 31 32 33 35 37 37 37 37 38 38 38 39 39
34 34 35 34 36 38 38 36 34 35 35 34 34 34 35 35 35 35 35 36 36 35 34 34 34 34 34 34 34 35 35 35 33 33 33 33 33 33 33 32 31 31 31 30 30 30 30 31 31 31 32 33 33 32 30 28 29 30 31 32 32 32 31 31 32 32 31 32 34 36 36 35 37 37 36 35 35 37 38 39 39 40 40 40 40 40 40 40
34 34 34 33 33 35 36 36 35 35 34 34 34 35 36 36 35 35 36 36 36 35 35 34 35 35 35 34 34 35 35 34 34 34 34 33 33 33 32 31 30 30 30 30 30 30 30 32 33 32 34 35 34 34 33 31 32 34 35 36 36 35 34 34 35 34 33 33 37 40 39 37 40 41 39 37 37 38 39 40 41 42 41 41 40 39 39 40
34 34 35 34 34 34 36 37 37 36 35 36 36 36 37 37 37 36 36 35 35 35 35 35 36 36 35 34 34 35 35 35 35 35 34 33 32 32 32 32 31 31 30 31 31 30 30 33 34 32 34 36 34 34 34 33 34 35 36 37 38 38 37 36 36 36 35 36 39 41 41 41 42 42 40 39 40 40 41 42 42 41 40 39 38 38 39 40
36 35 36 36 36 36 38 39 38 37 38 37 37 38 37 37 38 37 34 33 34 35 35 36 36 36 35 34 34 35 35 35 35 35 34 33 32 32 32 32 33 32 31 31 32 31 31 33 33 32 34 35 35 34 33 33 34 36 37 38 39 40 39 37 38 39 38 39 42 42 42 43 43 41 40 40 41 41 39 39 39 38 37 37 37 38 39 40
37 36 36 37 37 37 38 38 38 38 38 38 39 39 38 37 37 35 34 34 35 35 35 36 35 34 34 35 34 36 36 35 34 34 33 32 32 32 32 33 33 32 31 31 32 31 31 32 32 31 32 34 33 32 32 33 34 36 39 41 40 40 39 39 40 40 39 41 42 41 42 43 41 38 39 39 38 37 36 36 37 36 36 37 38 39 40 41
38 37 37 37 38 38 37 38 38 38 39 39 40 39 37 37 37 34 34 35 34 34 35 35 33 33 33 34 34 35 34 32 32 32 31 31 32 32 32 32 32 31 32 32 32 31 30 31 31 29 30 34 33 30 32 35 35 38 42 43 41 39 39 39 39 38 39 40 40 40 41 41 38 37 38 37 35 35 35 36 36 36 37 37 38 39 40 41
40 40 39 39 39 39 39 39 39 39 40 40 40 39 38 38 36 34 35 35 33 34 35 34 32 32 32 33 33 33 32 30 29 30 30 30 31 31 31 31 31 31 31 31 31 31 30 30 32 30 31 35 34 31 32 33 33 37 41 40 38 38 38 38 38 38 38 38 38 39 40 39 37 37 37 36 35 35 35 35 36 37 37 38 39 40 40 40
Wind_Direction
254 256 258 260 261 262 264 267 269 271 274 275 277 279 280 281 282 283 283 284 285 286 287 288 289 290 291 293 295 296 297 295 294 293 289 288 284 280 283 286 285 282 284 289 289 289 291 295 294 294 300 301 299 296 298 299 300 305 305 303 301 300 298 295 299 303 301 298 300 300 304 310 310 312 312 310 307 302 302 302 300 299 296 292 293 295 296 291
257 259 260 262 263 264 266 268 270 272 273 275 277 278 279 280 281 282 283 284 284 285 286 287 288 289 291 292 293 295 296 293 294 292 288 287 282 276 280 284 283 281 285 287 285 285 288 294 293 291 296 297 295 294 295 295 296 298 298 298 295 293 294 297 300 303 303 298 300 303 308 313 309 309 311 308 303 301 302 301 300 299 296 295 296 297 296 291
259 261 262 263 264 265 267 268 270 271 273 274 276 277 278 279 280 281 282 283 283 284 285 286 287 288 290 291 292 295 294 294 294 290 289 288 281 278 281 284 285 283 285 286 285 284 285 290 289 287 292 293 291 291 293 294 294 292 293 295 292 289 295 300 301 303 303 300 302 305 308 310 306 306 308 304 301 301 300 299 300 298 296 296 296 296 294 291
260 262 263 264 265 265 267 268 269 271 272 273 275 276 277 278 279 280 281 281 282 283 284 285 286 287 288 290 292 293 293 295 290 284 285 283 281 283 283 285 286 284 285 287 287 286 286 289 289 288 290 292 291 292 290 289 291 291 290 290 288 291 297 297 299 302 302 302 302 303 307 307 304 305 304 302 303 302 299 296 295 294 295 295 293 294 293 290
261 262 263 264 264 265 266 267 268 270 271 273 275 276 277 278 279 280 281 281 282 283 284 284 286 287 288 289 290 291 293 293 284 280 281 280 281 284 285 285 285 284 284 287 288 287 288 289 289 290 290 290 292 294 289 282 285 291 288 283 285 291 296 295 298 301 301 303 304 304 305 302 302 304 300 299 300 299 299 296 294 294 294 294 293 293 294 291
261 261 262 263 263 265 266 267 269 270 272 273 275 276 278 278 279 280 281 281 282 283 283 284 285 286 287 288 287 288 289 285 280 280 279 279 281 283 285 285 285 284 282 284 286 286 287 287 287 287 288 289 289 289 287 284 282 288 290 286 284 287 292 295 298 299 299 300 300 301 300 299 302 301 296 295 293 294 297 296 295 295 295 295 294 293 292 291
260 261 262 262 263 265 266 268 269 270 272 273 275 277 278 278 279 280 280 281 281 282 282 283 284 285 286 286 284 286 283 279 280 280 279 279 279 282 285 285 284 282 279 280 282 283 284 285 284 283 286 288 287 285 288 291 284 283 290 290 287 288 292 295 298 299 298 296 295 297 298 298 297 296 298 296 293 296 298 297 296 296 296 296 295 292 290 289
259 260 262 263 264 265 266 268 269 271 272 274 275 276 277 278 279 279 280 280 281 281 281 281 282 283 284 282 281 284 281 278 280 280 277 277 278 281 282 283 282 279 277 276 278 281 282 283 281 282 286 287 288 289 293 297 291 285 289 290 291 293 295 297 298 298 297 295 294 296 296 293 289 293 298 295 294 298 300 300 299 297 297 295 293 292 291 288
258 260 262 263 264 265 266 268 269 271 273 274 275 276 277 278 278 279 279 280 280 280 280 280 280 280 280 279 279 281 278 278 280 278 276 275 277 278 280 282 280 277 277 276 277 279 281 281 281 282 286 288 290 292 294 296 291 290 292 293 295 296 296 298 297 295 294 293 292 292 292 290 290 295 297 293 295 299 302 303 300 299 298 295 293 292 291 290
258 260 262 263 264 265 266 268 269 271 272 274 275 276 276 277 278 278 278 279 279 279 279 278 278 278 277 277 277 277 277 279 279 276 275 275 276 277 279 280 277 276 277 277 279 279 279 281 282 284 286 289 290 291 293 291 287 293 297 296 295 295 296 297 295 293 292 291 288 286 288 288 290 296 296 294 298 301 303 302 301 300 298 296 295 295 294 293
259 261 261 263 264 265 266 268 269 270 272 273 274 275 276 276 277 277 278 278 278 278 278 277 277 276 275 275 273 273 277 279 278 276 274 275 277 277 278 279 277 276 276 278 280 281 281 280 283 285 286 288 289 291 293 289 290 294 297 297 295 297 298 294 292 291 290 291 287 282 285 289 292 295 292 294 301 304 303 302 301 301 298 298 298 297 296 296
259 260 261 262 263 264 266 267 268 270 271 273 274 274 275 276 277 277 277 277 277 277 277 276 275 274 275 276 273 273 278 278 277 277 275 276 277 277 278 279 278 276 276 277 278 281 281 280 283 283 283 286 289 290 289 289 293 295 295 296 294 297 297 292 290 288 288 291 288 285 289 291 292 291 291 296 302 304 304 303 302 300 299 301 301 299 298 298
259 260 260 261 262 264 265 266 268 270 271 273 274 275 276 277 277 277 277 277 277 277 277 275 273 273 275 276 274 275 277 276 275 276 276 276 277 278 279 278 278 276 276 276 276 279 280 280 281 280 282 285 286 286 287 290 293 294 294 291 292 297 295 290 291 291 291 291 286 284 288 290 290 290 293 299 301 303 304 304 302 300 300 300 300 299 297 298
258 259 260 261 262 263 264 266 267 269 271 273 274 275 276 277 277 277 277 277 277 276 276 274 273 274 274 274 276 276 275 275 275 275 275 275 277 278 279 278 278 277 276 276 276 278 280 281 281 281 282 283 284 286 289 291 290 292 292 290 292 294 291 291 294 294 295 292 287 284 286 289 293 294 295 299 300 302 303 301 300 299 300 299 298 298 297 299
257 258 259 260 261 262 264 266 267 269 271 273 274 275 276 277 276 276 277 277 276 275 274 274 273 274 275 275 276 276 275 274 274 274 274 274 276 277 277 277 277 277 277 276 276 278 280 280 281 281 282 283 285 288 290 291 290 291 290 290 292 290 291 295 294 291 290 291 292 289 288 292 295 294 294 297 299 300 299 297 298 300 301 300 298 297 297 299
255 257 257 259 260 262 264 266 267 269 271 273 274 275 275 275 275 275 276 276 275 273 273 274 273 274 276 276 275 275 274 273 272 273 274 274 275 276 276 277 277 277 277 277 277 278 279 280 280 280 281 283 285 287 290 291 291 291 287 287 290 288 291 295 295 294 290 290 292 291 291 294 295 294 294 297 298 298 297 296 297 300 302 302 300 298 299 299
255 256 257 259 260 262 264 266 268 270 271 273 275 275 275 274 273 273 274 274 273 273 273 273 273 275 276 275 274 274 273 273 272 273 274 275 275 275 276 278 277 276 277 278 279 279 280 279 279 280 281 282 283 286 289 288 289 291 287 286 287 286 288 291 294 296 295 291 290 290 290 290 292 294 294 297 297 296 296 296 298 299 300 300 300 301 301 301
255 256 257 259 260 262 264 266 268 270 272 274 275 275 274 272 271 272 273 272 272 272 274 273 272 275 275 273 273 273 272 272 271 272 273 274 275 274 275 277 276 276 278 280 280 278 279 279 278 280 283 283 282 282 282 282 285 286 285 286 287 287 288 289 291 294 294 292 290 291 291 290 292 293 293 295 295 295 295 297 299 299 299 301 302 304 303 303
255 256 258 259 261 262 264 266 268 270 272 273 274 274 273 272 271 271 271 271 271 271 273 271 269 272 274 273 274 274 272 270 271 273 272 272 273 273 274 275 275 276 278 279 279 274 274 279 279 279 281 280 278 277 276 279 281 281 283 286 287 287 287 288 289 291 293 293 291 291 291 291 292 292 294 295 296 297 298 299 300 300 303 305 306 305 305 305
254 255 257 259 260 262 264 266 268 270 273 273 273 273 272 272 272 271 270 270 268 269 272 271 268 271 274 275 273 272 271 270 272 272 270 271 271 271 273 274 275 277 277 275 275 273 273 276 276 276 277 276 275 275 276 278 280 282 284 286 285 285 287 288 289 290 292 292 290 289 291 292 291 294 295 296 299 300 298 299 301 305 308 308 308 309 310 309
253 255 256 258 260 262 264 266 268 270 272 272 272 272 270 271 272 272 272 271 270 269 271 270 269 270 271 272 270 270 271 272 272 271 270 270 270 270 271 272 274 276 275 273 275 276 274 274 274 274 274 274 277 277 278 279 280 281 281 282 284 284 285 287 288 289 290 289 288 291 294 292 292 295 296 298 302 301 297 298 302 307 310 309 311 312 312 309
253 255 256 258 261 262 264 266 268 270 271 270 271 271 269 270 271 272 273 273 272 271 270 271 271 270 270 270 269 270 271 272 272 270 269 268 268 269 270 271 273 273 274 274 277 277 275 275 275 273 274 277 280 281 279 280 280 279 279 281 283 285 287 289 289 291 291 288 287 291 292 290 292 294 297 301 302 300 300 302 302 305 307 308 310 311 311 310
253 255 257 259 261 263 265 267 268 270 269 269 270 270 270 271 272 274 274 274 274 273 271 271 270 270 270 270 270 269 270 271 272 270 267 266 267 267 268 270 271 272 273 271 273 273 274 277 275 273 276 278 280 281 280 281 280 279 280 281 283 286 289 288 290 293 291 288 287 290 291 290 292 294 300 303 298 300 304 305 305 305 305 306 307 310 312 313
253 254 257 259 261 263 265 267 268 268 267 268 269 270 271 273 274 275 276 275 275 273 271 271 270 270 269 269 270 270 270 272 272 270 265 263 265 267 268 268 269 271 271 269 268 270 273 276 275 275 276 274 275 279 280 281 281 280 278 278 280 284 283 282 288 292 292 291 290 293 294 292 291 292 296 298 296 300 302 303 305 303 300 301 306 311 314 313
253 255 257 259 261 263 265 267 266 265 266 267 268 269 271 273 274 275 277 277 276 275 273 270 270 271 269 269 270 269 270 272 272 270 266 262 264 269 269 268 268 271 271 269 268 271 274 276 275 276 276 272 273 278 278 277 280 282 278 276 276 279 280 282 288 292 294 293 292 296 297 294 291 290 291 292 294 297 299 299 299 296 294 297 305 311 312 312
254 256 258 258 260 262 264 265 264 264 266 267 267 269 271 273 274 276 278 277 276 275 273 270 269 269 268 269 269 268 271 273 271 269 266 264 265 269 270 269 270 271 270 270 272 274 275 277 276 274 274 273 273 277 276 273 277 280 279 277 277 279 282 284 288 290 289 289 290 294 294 292 291 290 291 291 292 293 294 295 294 291 291 295 302 307 309 309
254 256 257 257 258 260 263 264 263 264 265 265 266 267 270 272 273 274 277 277 274 272 270 269 267 266 267 267 265 265 270 271 271 269 266 266 268 269 269 270 270 271 272 272 274 274 274 278 279 276 275 274 273 276 276 273 276 279 279 281 282 284 284 283 285 286 284 287 291 290 288 288 288 290 292 291 291 292 291 291 291 288 289 294 299 302 305 305
254 256 256 256 256 258 261 263 263 263 263 264 264 265 268 270 270 272 274 273 271 268 266 267 266 265 265 265 265 266 269 270 271 270 267 267 268 269 269 269 268 270 272 269 269 274 275 274 274 273 275 274 272 274 273 272 276 278 279 281 283 283 281 282 283 284 286 289 290 288 287 287 287 292 294 291 289 289 286 286 287 286 289 295 297 298 300 300
253 254 255 255 256 257 260 261 261 261 261 261 262 264 266 267 267 270 269 266 267 267 266 266 265 265 266 268 269 269 270 270 270 268 268 267 267 269 270 269 269 271 272 269 268 273 275 273 271 272 274 273 273 275 275 273 276 278 279 282 286 285 283 284 283 284 288 288 285 286 286 285 289 292 292 290 288 285 283 284 284 284 289 294 296 296 296 296
252 253 253 254 254 255 257 258 258 258 258 258 261 263 264 265 265 264 261 260 265 267 267 266 265 264 266 270 271 270 269 270 268 267 268 268 267 270 271 271 273 272 274 276 274 273 276 276 274 273 273 272 273 277 279 278 277 280 283 286 289 288 287 287 284 285 288 286 283 284 281 280 288 292 289 289 290 284 282 283 282 285 289 292 293 292 291 290
252 252 251 251 252 252 253 255 255 254 254 255 259 261 262 263 261 257 257 261 266 267 265 264 264 263 264 268 269 269 269 269 267 267 269 269 269 271 272 273 274 274 276 277 276 275 276 276 274 274 274 274 276 278 281 282 281 281 284 286 288 288 289 289 288 287 285 284 284 284 281 276 279 285 287 291 293 287 282 280 280 284 288 289 288 285 284 284
250 250 249 247 249 250 251 254 253 252 252 253 257 257 257 259 256 254 258 263 266 265 263 262 263 263 264 268 269 269 270 270 269 268 269 268 268 268 269 268 268 273 276 273 275 277 275 273 273 276 276 274 276 278 281 285 284 282 282 284 286 288 289 287 286 285 282 282 283 283 285 280 276 281 286 290 292 290 287 284 282 283 285 285 283 281 280 280
247 246 245 245 246 248 250 251 250 249 249 250 252 253 252 254 255 254 255 258 262 265 266 266 266 265 266 269 270 270 271 270 268 269 270 268 268 268 269 268 266 271 273 272 276 279 278 279 277 276 278 275 273 275 278 280 280 278 278 279 281 284 286 284 283 284 283 283 281 281 285 283 280 284 286 286 287 287 287 285 283 283 283 282 281 279 279 279
242 241 243 244 245 246 246 247 247 247 246 245 248 251 249 251 258 258 256 257 260 264 267 268 269 271 270 269 270 269 270 270 268 269 271 269 269 269 270 270 268 271 273 273 275 274 275 279 276 272 276 274 271 273 273 276 278 276 276 277 277 278 279 280 282 282 283 284 282 282 284 282 282 285 286 286 287 289 288 284 283 283 281 281 280 279 278 279
238 239 242 243 243 244 245 245 247 246 244 243 246 248 248 252 258 259 259 260 260 262 266 268 269 271 270 270 271 269 269 270 269 270 271 268 268 268 269 269 266 268 272 272 274 273 273 276 275 275 277 272 272 275 274 278 281 279 278 278 278 277 276 279 280 279 281 284 282 281 281 281 282 284 285 285 287 289 288 286 284 283 280 279 277 276 276 277
238 240 242 243 243 243 242 242 244 244 242 243 247 248 249 253 257 259 261 262 260 260 263 266 268 267 267 269 270 270 271 271 269 270 270 269 269 267 267 268 266 265 268 270 272 274 275 277 278 280 280 275 275 277 277 278 279 280 280 278 277 278 277 280 282 282 281 281 280 279 280 282 283 283 283 284 285 285 285 284 282 280 278 276 274 272 273 274
238 240 242 244 244 242 240 240 241 241 241 244 248 250 252 254 256 259 263 263 262 262 261 262 264 263 265 268 269 268 270 270 269 268 269 268 269 267 265 268 269 266 266 270 271 272 273 276 277 278 278 277 278 280 280 279 277 278 278 278 279 282 281 280 282 283 281 279 280 279 278 279 280 281 282 283 282 282 282 282 280 279 276 273 271 270 271 272
240 242 244 245 244 242 239 238 240 242 245 249 250 251 253 255 256 258 261 262 264 264 261 260 262 264 265 267 269 268 266 267 266 265 266 267 268 267 264 268 273 271 269 270 271 272 273 276 277 276 275 277 280 281 280 281 280 277 277 278 280 280 280 279 279 280 279 279 281 279 277 277 278 278 280 279 277 278 279 280 279 277 274 271 271 271 271 272
240 243 246 246 243 240 239 239 242 245 250 252 252 253 255 257 258 257 258 261 263 262 261 261 263 265 266 266 267 267 265 264 264 264 266 266 267 268 267 268 272 274 272 269 269 272 273 274 277 278 277 278 281 280 277 278 280 279 279 280 278 276 276 276 275 277 277 278 281 281 279 279 279 279 277 275 276 277 278 279 278 275 273 272 272 271 271 272
240 243 248 247 242 239 239 241 245 247 250 253 253 254 255 256 256 256 257 259 261 261 261 262 263 265 266 266 266 267 266 266 265 265 266 266 267 269 270 270 270 271 273 272 271 273 274 272 274 278 279 278 278 277 274 273 276 277 278 278 277 277 278 277 276 276 276 278 280 280 280 279 280 280 278 275 277 278 277 276 276 275 274 272 271 271 272 273
241 245 249 246 241 238 239 244 247 249 251 252 252 253 255 256 257 258 259 258 259 260 260 261 263 264 265 266 266 267 267 266 265 265 266 265 265 267 268 270 270 269 272 274 273 273 273 272 272 274 276 275 275 275 273 272 272 274 275 275 275 277 278 279 279 277 275 276 277 278 280 280 280 281 280 278 278 278 275 274 274 273 271 271 272 272 273 275
242 246 248 245 240 237 239 245 249 249 251 251 252 254 255 257 258 259 260 260 260 260 260 262 263 262 263 264 264 264 264 264 262 262 263 262 263 265 266 268 269 269 271 272 273 273 273 273 273 273 274 273 274 275 275 274 272 272 275 275 274 276 276 276 278 278 276 276 277 278 279 279 280 281 281 279 277 275 272 271 271 270 270 272 273 274 275 276
245 247 248 245 240 238 240 246 248 249 252 252 253 254 255 257 259 259 259 260 260 260 260 261 261 260 261 261 261 261 261 261 260 259 260 262 263 266 266 266 268 271 272 272 273 274 275 274 274 275 276 277 276 277 279 279 276 274 276 277 274 274 275 274 275 277 277 276 277 278 278 278 280 282 281 279 277 274 272 271 272 273 274 274 274 275 276 277
247 249 249 247 242 240 244 248 248 249 252 254 254 255 256 258 258 259 260 260 260 260 260 261 260 259 260 260 260 260 259 260 262 261 262 263 264 267 269 268 268 271 272 272 271 273 273 272 272 275 277 279 279 280 280 280 278 274 274 275 274 274 275 276 276 277 277 276 275 275 277 278 280 282 281 279 277 275 274 274 275 276 275 275 275 275 276 277
249 250 250 248 244 243 247 250 251 251 253 254 256 257 258 259 259 258 259 260 259 259 260 261 259 259 260 260 260 260 260 261 264 264 264 265 267 269 271 270 269 270 272 272 271 271 271 270 270 271 272 273 276 277 276 276 276 274 274 275 275 274 273 276 278 277 276 277 276 275 277 279 280 280 279 278 277 276 276 276 276 276 276 275 275 275 276 277
250 251 251 249 246 245 248 250 251 254 254 255 258 258 257 260 262 260 258 259 258 257 260 263 261 260 260 260 259 261 261 262 264 265 266 266 268 270 271 271 271 270 271 272 272 272 271 270 270 269 268 270 272 273 273 275 275 274 274 275 275 274 273 275 277 275 275 277 277 275 277 279 279 279 278 278 278 278 278 277 276 276 277 276 276 276 277 278
251 251 250 248 247 247 248 249 250 254 255 255 257 260 258 260 264 263 261 261 259 257 260 263 260 259 260 259 260 262 262 263 263 264 266 267 268 270 271 271 272 271 271 272 272 272 271 271 271 269 269 271 271 272 274 275 274 273 274 275 275 275 274 274 274 274 276 277 277 277 278 278 278 279 279 278 277 278 279 278 278 278 277 277 277 277 277 278
251 253 250 247 248 248 248 248 250 252 256 257 259 262 261 260 262 263 263 263 261 257 259 260 259 258 259 259 261 262 262 263 264 264 265 266 267 269 270 272 271 270 271 272 272 271 270 271 271 270 271 272 273 274 275 275 274 273 274 275 276 276 274 273 273 274 275 275 277 279 279 278 278 280 280 279 278 279 279 279 280 280 278 277 277 277 278 279
252 255 252 249 250 250 248 248 249 251 255 258 261 263 263 262 262 262 262 262 262 259 258 259 259 258 258 259 260 261 261 262 263 265 265 265 266 266 268 270 270 270 271 271 272 271 271 272 273 271 272 274 274 274 275 274 273 274 274 274 276 276 275 274 275 275 275 274 276 279 279 278 280 281 280 280 280 280 280 280 281 280 278 277 278 279 279 280
252 254 254 252 252 253 252 250 250 253 256 257 260 262 263 262 261 262 262 260 260 260 259 258 259 259 258 259 260 261 262 261 262 264 264 264 265 266 266 267 268 270 271 271 271 272 272 272 273 273 274 275 274 274 274 274 274 275 276 276 276 277 277 276 276 277 277 276 278 279 278 279 282 282 281 281 281 281 281 281 281 280 279 278 279 279 280 280
253 253 253 253 253 253 253 253 253 255 257 258 259 261 261 260 260 260 261 261 259 259 259 257 259 261 261 260 259 261 262 261 261 262 263 263 264 265 266 266 266 268 270 270 271 272 272 272 273 275 275 274 274 274 274 276 277 276 276 276 276 276 277 277 277 277 277 278 280 279 278 280 283 283 282 282 282 282 282 282 281 280 279 279 279 280 280 280
253 253 252 252 254 253 254 255 254 255 257 258 258 259 258 259 258 257 258 261 261 261 261 257 256 261 262 260 260 260 260 260 261 262 263 265 265 265 266 266 265 266 268 269 271 272 271 271 273 273 274 275 276 274 274 276 278 277 277 277 277 276 277 278 278 278 278 279 280 279 280 282 283 282 282 283 282 282 281 281 281 281 280 281 281 281 282 281